Location: Domachevo
(51.7500°N, 23.6000°E)
Time: 01:42:55
(UTC+03:00)

GENESIS II - Visible Passes

Search period start: 25 April 2019 00:00
Search period end: 05 May 2019 00:00
Orbit: 483 x 547 km, 64.5° (Epoch: 24 April)

Date Brightness Start Highest point End Pass type
(mag) Time Alt. Az. Time Alt. Az. Time Alt. Az.
30 Apr 7.3 04:37:56 10° ESE 04:38:10 10° ESE 04:38:23 10° ESE visible
01 May 7.1 04:21:38 10° ESE 04:22:12 10° ESE 04:22:46 10° ESE visible
02 May 7.0 04:05:29 10° ESE 04:06:15 10° ESE 04:07:01 10° E visible
03 May 7.0 03:49:22 10° ESE 03:50:17 11° ESE 03:51:13 10° E visible
04 May 6.9 03:33:16 10° SE 03:34:20 11° ESE 03:35:23 10° E visible
04 May 4.4 05:07:16 10° SSW 05:11:14 73° SE 05:15:18 10° NE visible
